Home   Weather   Zweibrücken   Past weeks

Flag for Germany Past Weather in Zweibrücken, Rhineland-Palatinate, Germany — Yesterday and Last 2 Weeks

Now
45 °F

Broken clouds.


Feels Like: 39 °F
Forecast: 45 / 51 °F
Wind: 10 mph from Southwest

Location: Saarbruecken / Ensheim

Current Time: Jan 23, 2018 at 1:44:49 pm

Latest Report: Jan 23, 2018 at 12:50 pm


Visibility: N/A

Pressure: 30.27 "Hg

Humidity: 81%

Dew Point: 39 °F

Location of ZweibrückenLocation

Past Weather in Zweibrücken — Graph

°F

Zweibrücken Temperature Yesterday

Maximum temperature yesterday: 50 °F (at 12:50 pm)
Minimum temperature yesterday: 34 °F (at 12:20 am)
Average temperature yesterday: 43 °F

High & Low Weather Summary for the Past Weeks

 TemperatureHumidityPressure
High50 °F (Jan 22, 12:50 pm)100% (Jan 10, 7:20 pm)30.30 "Hg (Jan 10, 7:20 pm)
Low28 °F (Jan 14, 10:50 pm)65% (Jan 17, 1:50 pm)29.42 "Hg (Jan 16, 5:50 am)
Average39 °F87%29.88 "Hg
* Reported Jan 8 12:20 pm — Jan 23 12:20 pm, Zweibrücken. Weather by CustomWeather, © 2018

Note: Actual official high and low records may vary slightly from our data, if they occured in-between our weather recording intervals... More about our weather records

Advertising

Zweibrücken Weather History for the Previous 24 Hours

Scroll right to see more
 ConditionsComfort  
Time TempWeatherWind HumidityBarometerVisibility
12:20 pm
Tue, Jan 23
43 °FBroken clouds.8 mph87%30.27 "HgN/A
11:50 am43 °FBroken clouds.9 mph87%30.30 "HgN/A
11:20 am43 °FOvercast.9 mph87%30.30 "HgN/A
10:50 am43 °FOvercast.10 mph87%30.30 "HgN/A
10:20 am43 °FOvercast.9 mph87%30.27 "HgN/A
9:50 am43 °FOvercast.7 mph87%30.27 "HgN/A
9:20 am43 °FPartly sunny.6 mph81%30.27 "HgN/A
8:50 am41 °FPartly sunny.5 mph87%30.24 "HgN/A
8:20 am41 °FPartly sunny.7 mph87%30.24 "HgN/A
7:50 am41 °FPassing clouds.8 mph93%30.24 "HgN/A
7:20 am41 °FPartly cloudy.8 mph93%30.24 "HgN/A
6:50 am41 °FPassing clouds.8 mph93%30.21 "HgN/A
6:20 am41 °FPassing clouds.7 mph93%30.21 "HgN/A
5:50 am41 °FPartly cloudy.9 mph93%30.21 "HgN/A
5:20 am41 °FPassing clouds.7 mph87%30.21 "HgN/A
4:50 am41 °FPassing clouds.8 mph87%30.21 "HgN/A
4:20 am41 °FPartly cloudy.7 mph87%30.18 "HgN/A
3:50 am41 °FPartly cloudy.8 mph87%30.18 "HgN/A
3:20 am41 °FOvercast.6 mph87%30.18 "HgN/A
2:50 am41 °FPassing clouds.6 mph87%30.18 "HgN/A
2:20 am41 °FPassing clouds.6 mph87%30.18 "HgN/A
1:50 am41 °FPassing clouds.10 mph87%30.15 "HgN/A
1:20 am41 °FPassing clouds.9 mph87%30.15 "HgN/A
12:50 am41 °FPassing clouds.8 mph87%30.15 "HgN/A
12:20 am43 °FOvercast.10 mph87%30.12 "HgN/A
11:50 pm
Mon, Jan 22
43 °FOvercast.13 mph87%30.12 "HgN/A
11:20 pm43 °FOvercast.12 mph87%30.09 "HgN/A
10:50 pm43 °FPassing clouds.8 mph87%30.09 "HgN/A
10:20 pm43 °FPassing clouds.10 mph87%30.07 "HgN/A
9:50 pm43 °FPassing clouds.7 mph87%30.07 "HgN/A
9:20 pm43 °FPassing clouds.8 mph87%30.04 "HgN/A
8:50 pm43 °FPassing clouds.6 mph87%30.01 "HgN/A
8:20 pm43 °FPassing clouds.5 mph87%30.01 "HgN/A
7:50 pm45 °FPassing clouds.6 mph87%29.98 "HgN/A
7:20 pm45 °FPassing clouds.6 mph87%29.98 "HgN/A
6:50 pm45 °FPassing clouds.13 mph87%29.95 "HgN/A
6:20 pm45 °FPassing clouds.6 mph100%29.92 "HgN/A
5:50 pm46 °FPassing clouds.6 mph93%29.89 "HgN/A
5:20 pm46 °FPassing clouds.6 mph93%29.86 "HgN/A
4:50 pm46 °FLight rain. Partly sunny.5 mph100%29.83 "HgN/A
4:20 pm48 °FPartly sunny.6 mph94%29.80 "HgN/A
3:50 pm48 °FLight rain. More clouds than sun.5 mph94%29.77 "HgN/A
3:20 pm48 °FRain. Mostly cloudy.6 mph94%29.77 "HgN/A
2:20 pm48 °FLight rain. Mostly cloudy.2 mph100%29.74 "Hg4 mi
1:50 pm50 °FLight rain. Fog.3 mph94%29.74 "Hg3 mi
1:20 pm50 °FLight rain. Partly sunny.5 mph94%29.77 "Hg6 mi
Weather by CustomWeather, © 2018

See weather overview